This demonstration page uses our WeatherBlox Daily Observations layout. Learn more.

Left ArrowRight Arrow

39.12711, -84.51439

Hourly Observations for December 8, 2018

Temp ( °F °C ) Dew Point ( °F °C ) Humidity (%) Winds ( mph kmh ) Pressure ( in mb ) Visibility ( mi km ) Precip ( " mm )
12:53 am 00:53 Clear 22 -5.6 19 -7.2 89 89 Calm 30.54 1034 9 14 0.00 0.00
1:53 am 01:53 Clear 25 -3.9 18 -7.8 75 75 N 8 13 30.54 1034 10 16 0.00 0.00
2:53 am 02:53 Clear 24 -4.4 18 -7.8 77 77 N 5 7 30.56 1035 10 16 0.00 0.00
3:53 am 03:53 Clear 23 -5 17 -8.3 78 78 Calm 30.57 1035 9 14 0.00 0.00
4:53 am 04:53 Clear 22 -5.6 16 -8.9 78 78 N 3 6 30.58 1035 8 13 0.00 0.00
5:53 am 05:53 Clear 23 -5 17 -8.3 78 78 N 6 9 30.59 1036 8 13 0.00 0.00
6:53 am 06:53 Clear 23 -5 16 -8.9 74 74 N 7 11 30.62 1037 9 14 0.00 0.00
7:53 am 07:53 Sunny 22 -5.6 14 -10 71 71 NE 7 11 30.66 1038 10 16 0.00 0.00
8:53 am 08:53 Sunny 24 -4.4 14 -10 65 65 NNE 9 15 30.66 1038 10 16 0.00 0.00
9:53 am 09:53 Sunny 25 -3.9 14 -10 63 63 ENE 10 17 30.66 1038 10 16 0.00 0.00
10:53 am 10:53 Sunny 26 -3.3 14 -10 60 60 ENE 10 17 30.67 1039 10 16 0.00 0.00
11:53 am 11:53 Sunny 27 -2.8 14 -10 58 58 NE 10 17 30.63 1037 10 16 0.00 0.00
12:53 pm 12:53 Sunny 28 -2.2 14 -10 56 56 ENE 10 17 30.60 1036 10 16 0.00 0.00
1:53 pm 13:53 Sunny 29 -1.7 15 -9.4 56 56 ENE 7 11 30.58 1036 10 16 0.00 0.00
2:53 pm 14:53 Sunny 29 -1.7 15 -9.4 56 56 NE 7 11 30.57 1035 10 16 0.00 0.00
3:53 pm 15:53 Sunny 28 -2.2 15 -9.4 58 58 NE 9 15 30.57 1035 10 16 0.00 0.00
4:53 pm 16:53 Sunny 28 -2.2 16 -8.9 60 60 NE 9 15 30.56 1035 10 16 0.00 0.00
5:53 pm 17:53 Clear 27 -2.8 17 -8.3 66 66 NNE 6 9 30.56 1035 10 16 0.00 0.00
6:53 pm 18:53 Clear 27 -2.8 17 -8.3 66 66 NE 8 13 30.55 1035 10 16 0.00 0.00
7:53 pm 19:53 Clear 26 -3.3 17 -8.3 69 69 NE 9 15 30.55 1035 10 16 0.00 0.00
8:53 pm 20:53 Clear 27 -2.8 17 -8.3 66 66 ENE 9 15 30.53 1034 10 16 0.00 0.00
9:53 pm 21:53 Clear 26 -3.3 17 -8.3 69 69 NE 7 11 30.49 1033 10 16 0.00 0.00
10:53 pm 22:53 Clear 26 -3.3 18 -7.8 71 71 NE 6 9 30.49 1032 10 16 0.00 0.00
11:53 pm 23:53 Clear 26 -3.3 18 -7.8 71 71 NE 7 11 30.45 1031 10 16 0.00 0.00

Powered by AerisWeather